This demonstration page uses our WeatherBlox Daily Observations layout. Learn more.

Left ArrowRight Arrow

32.84923, -109.75925

Hourly Observations for October 7, 2022

Temp ( °F °C ) Dew Point ( °F °C ) Humidity (%) Winds ( mph kmh ) Pressure ( in mb ) Visibility ( mi km ) Precip ( " mm )
12:51 am 00:51 Clear 62 16.7 55 12.8 78 78 E 13 20 30.11 1020 10 16 0.00 0.00
1:51 am 01:51 Clear 60 15.6 54 12.2 80 80 E 10 17 30.11 1020 10 16 0.00 0.00
2:51 am 02:51 Clear 59 15 54 12.2 83 83 ESE 8 13 30.09 1019 10 16 0.00 0.00
3:51 am 03:51 Clear 59 15 53 11.7 81 81 E 10 17 30.09 1019 10 16 0.00 0.00
4:51 am 04:51 Clear 57 13.9 54 12.2 89 89 SE 9 15 30.09 1019 10 16 0.00 0.00
5:51 am 05:51 Clear 58 14.4 54 12.2 87 87 SE 9 15 30.12 1020 10 16 0.00 0.00
6:51 am 06:51 Sunny 59 15 55 12.8 87 87 ESE 8 13 30.13 1020 10 16 0.00 0.00
7:51 am 07:51 Sunny 62 16.7 56 13.3 80 80 SSE 9 15 30.15 1021 10 16 0.00 0.00
8:51 am 08:51 Sunny 67 19.4 55 12.8 66 66 ESE 9 15 30.15 1021 10 16 0.00 0.00
9:51 am 09:51 Sunny 70 21.1 55 12.8 59 59 SE 8 13 30.15 1021 10 16 0.00 0.00
10:51 am 10:51 Sunny 72 22.2 55 12.8 55 55 SE 8 13 30.13 1020 10 16 0.00 0.00
11:51 am 11:51 Mostly Sunny 73 22.8 56 13.3 55 55 S 9 15 30.10 1019 10 16 0.00 0.00
12:51 pm 12:51 Mostly Sunny 75 23.9 55 12.8 50 50 SE 5 7 30.06 1018 10 16 0.00 0.00
1:51 pm 13:51 Sunny 78 25.6 55 12.8 45 45 SE 10 17 30.03 1017 10 16 0.00 0.00
2:51 pm 14:51 Sunny 79 26.1 55 12.8 44 44 ESE 15 24 30.01 1016 10 16 0.00 0.00
3:51 pm 15:51 Sunny with Nearby Thunderstorms 74 23.3 54 12.2 50 50 ESE 22 35 30.03 1017 10 16 0.00 0.00
4:25 pm 16:25 Sunny 71 21.7 53 11.7 53 53 E 20 31 30.00 1016 10 16 0.00 0.00
4:51 pm 16:51 Sunny 69 20.6 52 11.1 54 54 ENE 21 33 30.06 1018 10 16 0.00 0.00
5:51 pm 17:51 Sunny 67 19.4 53 11.7 61 61 E 16 26 30.08 1019 10 16 0.00 0.00
6:51 pm 18:51 Clear 67 19.4 54 12.2 63 63 E 10 17 30.09 1019 10 16 0.00 0.00
7:51 pm 19:51 Clear 66 18.9 53 11.7 63 63 E 8 13 30.10 1019 10 16 0.00 0.00
8:51 pm 20:51 Partly Cloudy 66 18.9 54 12.2 65 65 ESE 9 15 30.11 1020 10 16 0.00 0.00
9:51 pm 21:51 Partly Cloudy 65 18.3 55 12.8 70 70 SE 7 11 30.11 1020 10 16 0.00 0.00
10:51 pm 22:51 Cloudy 65 18.3 54 12.2 68 68 SE 7 11 30.11 1020 10 16 0.00 0.00
11:51 pm 23:51 Cloudy 64 17.8 54 12.2 70 70 SE 6 9 30.11 1020 10 16 0.00 0.00

Powered by AerisWeather